Overview Statistics Trail Chart Weather Telemetry Raw packets
 

This is the latest recevied weather packets stored in our database for station/object W5GMO. If no packets are shown the sender has not sent any weather packets the latest 10 day(s).

<< 106 107 108 109 110 111 112 >>
Time Temp. Humidity Pressure Rain* Wind** Luminosity Snow
1787836364 25.56° C 1% 1016 hPa 0 mm - 146 W/m² -
1787836060 25.56° C 1% 1016.2 hPa 0 mm - 165 W/m² -
1787835756 25.56° C 1% 1016 hPa 0 mm - 176 W/m² -
1787835450 25.56° C 1% 1016.1 hPa 0 mm - 183 W/m² -
1787835145 25.56° C 1% 1015.8 hPa 0 mm - 172 W/m² -
1787834845 25.56° C 1% 1015.8 hPa 0 mm - 197 W/m² -
1787834540 25° C 1% 1015.9 hPa 0 mm - 236 W/m² -
1787834235 25° C 1% 1016 hPa 0 mm - 242 W/m² -
1787833931 25° C 1% 1016.1 hPa 0 mm - 172 W/m² -
1787833626 25° C 1% 1015.8 hPa 0 mm - 182 W/m² -
1787833322 25° C 1% 1015.9 hPa 0 mm - 155 W/m² -
1787833016 24.44° C 1% 1015.9 hPa 0 mm - 126 W/m² -
1787832712 24.44° C 1% 1015.9 hPa 0 mm - 115 W/m² -
1787832411 24.44° C 1% 1015.9 hPa 0 mm - 121 W/m² -
1787832111 24.44° C 1% 1016 hPa 0 mm - 113 W/m² -
1787831809 24.44° C 1% 1016.1 hPa 0 mm - 106 W/m² -
1787831504 24.44° C 1% 1015.9 hPa 0 mm - 129 W/m² -
1787831203 24.44° C 1% 1015.9 hPa 0 mm - 90 W/m² -
1787830899 23.89° C 1% 1015.8 hPa 0 mm - 82 W/m² -
1787830599 23.89° C 1% 1015.9 hPa 0 mm - 63 W/m² -
1787830298 23.89° C 1% 1016.1 hPa 0 mm - 49 W/m² -
1787829992 23.89° C 1% 1015.9 hPa 0 mm - 45 W/m² -
1787829692 23.89° C 1% 1015.8 hPa 0 mm - 53 W/m² -
1787829387 23.89° C 1% 1016.2 hPa 0 mm - 54 W/m² -
1787829083 23.89° C 1% 1015.9 hPa 0 mm - 47 W/m² -

* Rain latest hour (hover to see other rain measurements)
** Current wind speed in m/s (hover to see current wind gust speed)